Pecos, TX

11:23 PM CST on February 21, 2017 (GMT -0600)
Pecos Municipal

Weather History for KPEQ - October, 2014

Change the Weather History Date:

Sunday, October 26, 2014

  Actual Average Record
Temperature  
Mean Temperature 70 °F -  
Max Temperature 89 °F 77 °F 95 °F (1950)
Min Temperature 50 °F 44 °F 32 °F (1975)
Cooling Degree Days 4    
Growing Degree Days 20 (Base 50)    
Moisture  
Dew Point 49 °F    
Average Humidity 57    
Maximum Humidity 89    
Minimum Humidity 22    
Precipitation  
Precipitation 0.00 in - - ()
Sea Level Pressure  
Sea Level Pressure 29.97 in    
Wind  
Wind Speed 2 mph (SE)    
Max Wind Speed 8 mph    
Max Gust Speed -    
Visibility 10 miles    
Events      
Averages and records for this station are not official NWS values.
T = Trace of Precipitation, MM = Missing Value Source: NWS Daily Summary

Daily Weather History Graph

Daily Weather History Graph

Search for Another Location

Airport or City:

Trip Planner

Search our weather history database for the weather conditions in past years. The results will help you decide how hot, cold, wet, or windy it might be!

Date:

Astronomy

Oct. 26, 2014 Rise Set
Actual Time 8:05 AM CDT 7:10 PM CDT
Civil Twilight 7:40 AM CDT 7:35 PM CDT
Nautical Twilight 7:11 AM CDT 8:03 PM CDT
Astronomical Twilight 6:43 AM CDT 8:31 PM CDT
Moon 10:38 AM CDT (10/26) 9:30 PM CDT (10/26)
Length of Visible Light 11h 54m
Length of Day
11h 05m
Waxing Crescent, 8% of the Moon is Illuminated
Oct 26
Waxing Crescent
Oct 30
First Quarter
Nov 6
Full
Nov 14
Last Quarter
Nov 22
New

Hourly Weather History & Observations

Time (CDT) Temp. Dew Point Humidity Pressure Visibility Wind Dir Wind Speed Gust Speed Precip Events Conditions
12:15 AM 63.7 °F 53.6 °F 70% 30.07 in 10.0 mi Calm Calm - N/A   Clear
12:35 AM 61.7 °F 53.6 °F 75% 30.07 in 10.0 mi West 3.5 mph - N/A   Clear
12:55 AM 61.7 °F 53.2 °F 74% 30.06 in 10.0 mi Calm Calm - N/A   Clear
1:15 AM 61.3 °F 53.1 °F 74% 30.05 in 10.0 mi Calm Calm - N/A   Clear
1:35 AM 60.3 °F 52.7 °F 76% 30.05 in 10.0 mi ESE 4.6 mph - N/A   Clear
1:55 AM 57.4 °F 52.0 °F 82% 30.05 in 10.0 mi SSE 5.8 mph - N/A   Clear
2:15 AM 56.3 °F 51.1 °F 83% 30.05 in 10.0 mi South 3.5 mph - N/A   Clear
2:35 AM 56.3 °F 51.1 °F 83% 30.05 in 10.0 mi SSW 3.5 mph - N/A   Clear
2:55 AM 55.8 °F 50.9 °F 84% 30.04 in 10.0 mi Calm Calm - N/A   Clear
3:15 AM 56.1 °F 50.2 °F 80% 30.04 in 10.0 mi SW 3.5 mph - N/A   Clear
3:35 AM 55.6 °F 50.0 °F 81% 30.03 in 10.0 mi WSW 4.6 mph - N/A   Clear
3:55 AM 55.4 °F 49.6 °F 81% 30.02 in 10.0 mi West 4.6 mph - N/A   Clear
4:15 AM 53.8 °F 48.9 °F 84% 30.02 in 10.0 mi South 3.5 mph - N/A   Clear
4:35 AM 54.5 °F 49.6 °F 84% 30.02 in 10.0 mi Calm Calm - N/A   Clear
4:55 AM 53.6 °F 48.7 °F 84% 30.02 in 10.0 mi Calm Calm - N/A   Clear
5:15 AM 53.4 °F 48.7 °F 84% 30.02 in 10.0 mi Calm Calm - N/A   Clear
5:35 AM 54.3 °F 49.3 °F 83% 30.02 in 10.0 mi Calm Calm - N/A   Clear
5:55 AM 54.5 °F 50.4 °F 86% 30.02 in 10.0 mi Calm Calm - N/A   Clear
6:15 AM 53.8 °F 49.3 °F 85% 30.02 in 10.0 mi Calm Calm - N/A   Clear
6:35 AM 52.2 °F 48.6 °F 88% 30.02 in 10.0 mi Calm Calm - N/A   Clear
6:55 AM 52.2 °F 48.0 °F 86% 30.02 in 10.0 mi Calm Calm - N/A   Clear
7:15 AM 51.8 °F 47.7 °F 86% 30.02 in 10.0 mi West 3.5 mph - N/A   Clear
7:35 AM 50.9 °F 47.5 °F 88% 30.02 in 10.0 mi WNW 3.5 mph - N/A   Clear
7:55 AM 50.9 °F 47.5 °F 88% 30.02 in 10.0 mi NW 3.5 mph - N/A   Clear
8:15 AM 51.3 °F 47.8 °F 88% 30.02 in 10.0 mi WNW 3.5 mph - N/A   Clear
8:35 AM 52.0 °F 48.6 °F 88% 30.03 in 10.0 mi NW 3.5 mph - N/A   Clear
8:55 AM 54.1 °F 51.1 °F 89% 30.04 in 10.0 mi Calm Calm - N/A   Clear
9:15 AM 56.7 °F 52.7 °F 87% 30.04 in 10.0 mi Calm Calm - N/A   Clear
9:35 AM 58.5 °F 53.1 °F 82% 30.04 in 10.0 mi Calm Calm - N/A   Clear
9:55 AM 61.0 °F 53.8 °F 77% 30.05 in 10.0 mi Calm Calm - N/A   Clear
10:15 AM 61.9 °F 53.8 °F 75% 30.05 in 10.0 mi Calm Calm - N/A   Clear
10:35 AM 64.0 °F 53.6 °F 69% 30.05 in 10.0 mi Calm Calm - N/A   Clear
10:55 AM 66.6 °F 53.6 °F 63% 30.04 in 10.0 mi Calm Calm - N/A   Clear
11:10 AM 68.9 °F 53.1 °F 57% 30.04 in 10.0 mi Calm Calm - N/A   Clear
11:35 AM 70.5 °F 53.2 °F 54% 30.04 in 10.0 mi Calm Calm - N/A   Clear
11:55 AM 72.7 °F 53.1 °F 50% 30.03 in 10.0 mi Calm Calm - N/A   Clear
12:15 PM 75.7 °F 52.2 °F 44% 30.03 in 10.0 mi SE 3.5 mph - N/A   Clear
12:35 PM 77.5 °F 52.3 °F 41% 30.02 in 10.0 mi Calm Calm - N/A   Clear
12:55 PM 79.3 °F 51.6 °F 38% 30.00 in 10.0 mi Calm Calm - N/A   Clear
1:15 PM 80.8 °F 51.6 °F 36% 29.99 in 10.0 mi Calm Calm - N/A   Clear
1:35 PM 81.7 °F 51.1 °F 34% 29.98 in 10.0 mi Calm Calm - N/A   Clear
1:55 PM 83.5 °F 51.1 °F 32% 29.97 in 10.0 mi Calm Calm - N/A   Clear
2:15 PM 85.6 °F 51.4 °F 31% 29.95 in 10.0 mi Calm Calm - N/A   Clear
2:35 PM 85.6 °F 50.5 °F 30% 29.94 in 10.0 mi Calm Calm - N/A   Clear
2:55 PM 87.4 °F 51.1 °F 29% 29.93 in 10.0 mi NNE 3.5 mph - N/A   Clear
3:15 PM 88.2 °F 48.2 °F 25% 29.92 in 10.0 mi North 3.5 mph - N/A   Clear
3:35 PM 88.2 °F 48.4 °F 25% 29.91 in 10.0 mi North 3.5 mph - N/A   Clear
3:55 PM 88.9 °F 46.8 °F 23% 29.90 in 10.0 mi Calm Calm - N/A   Clear
4:15 PM 88.9 °F 44.8 °F 22% 29.89 in 10.0 mi NE 3.5 mph - N/A   Clear
4:35 PM 89.4 °F 46.2 °F 22% 29.89 in 10.0 mi SW 4.6 mph - N/A   Clear
4:55 PM 88.7 °F 45.0 °F 22% 29.88 in 10.0 mi Calm Calm - N/A   Clear
5:15 PM 89.4 °F 46.2 °F 22% 29.88 in 10.0 mi East 8.1 mph - N/A   Clear
5:35 PM 88.7 °F 45.9 °F 23% 29.88 in 10.0 mi ENE 4.6 mph - N/A   Clear
5:55 PM 87.8 °F 45.0 °F 22% 29.88 in 10.0 mi NE 6.9 mph - N/A   Clear
6:15 PM 87.1 °F 45.9 °F 24% 29.87 in 10.0 mi ENE 5.8 mph - N/A   Clear
6:35 PM 85.8 °F 48.2 °F 27% 29.86 in 10.0 mi East 5.8 mph - N/A   Clear
6:55 PM 82.6 °F 49.3 °F 31% 29.86 in 10.0 mi East 5.8 mph - N/A   Clear
7:15 PM 79.5 °F 49.3 °F 35% 29.86 in 10.0 mi East 4.6 mph - N/A   Clear
7:35 PM 76.8 °F 50.5 °F 40% 29.87 in 10.0 mi East 3.5 mph - N/A   Clear
7:55 PM 76.3 °F 48.9 °F 38% 29.88 in 10.0 mi ENE 4.6 mph - N/A   Clear
8:35 PM 75.6 °F 45.9 °F 35% 29.88 in 10.0 mi ESE 3.5 mph - N/A   Clear
8:55 PM 72.3 °F 46.4 °F 40% 29.88 in 10.0 mi ESE 5.8 mph - N/A   Clear
9:15 PM 69.4 °F 46.9 °F 45% 29.88 in 10.0 mi SE 6.9 mph - N/A   Clear
9:35 PM 70.0 °F 44.8 °F 40% 29.88 in 10.0 mi SE 5.8 mph - N/A   Clear
9:55 PM 68.9 °F 45.3 °F 43% 29.88 in 10.0 mi SSW 3.5 mph - N/A   Clear
10:15 PM 67.6 °F 45.5 °F 45% 29.88 in 10.0 mi SSE 6.9 mph - N/A   Clear
10:35 PM 65.5 °F 45.9 °F 49% 29.88 in 10.0 mi South 5.8 mph - N/A   Clear
10:55 PM 65.1 °F 46.6 °F 51% 29.88 in 10.0 mi SSW 5.8 mph - N/A   Clear
11:15 PM 64.9 °F 46.9 °F 52% 29.87 in 10.0 mi ESE 3.5 mph - N/A   Clear
11:35 PM 64.6 °F 47.1 °F 53% 29.87 in 10.0 mi SSE 5.8 mph - N/A   Clear
11:55 PM 63.1 °F 47.1 °F 56% 29.86 in 10.0 mi South 3.5 mph - N/A   Clear